Location: Aurora Center
(43.5271°N, 98.5894°W)
Time: 08:35:40
(UTC-05:00)

Vanguard 3 - All Passes

Search period start: 14 July 2024 00:00
Search period end: 24 July 2024 00:00
Orbit: 508 x 3231 km, 33.4° (Epoch: 13 July)

Date Brightness Start Highest point End Pass type
(mag) Time Alt. Az. Time Alt. Az. Time Alt. Az.
14 Jul - 01:39:09 10° SSW 01:51:54 29° SE 02:07:02 10° E visible
14 Jul - 03:48:34 10° SW 04:05:37 53° SSE 04:23:31 10° E visible
14 Jul - 06:01:57 10° WSW 06:21:03 61° S 06:37:09 10° ESE daylight
14 Jul - 08:17:51 10° W 08:35:38 47° SSW 08:48:22 10° SE daylight
14 Jul - 10:36:44 10° W 10:47:24 21° SW 10:55:30 10° S daylight
15 Jul - 00:24:24 10° SSE 00:32:54 17° SE 00:42:51 10° E visible
15 Jul - 02:30:17 10° SSW 02:45:05 42° SSE 03:02:35 10° E visible
15 Jul - 04:41:48 10° WSW 04:59:52 60° S 05:17:38 10° E visible
15 Jul - 06:56:21 10° W 07:15:19 57° SSW 07:30:22 10° ESE daylight
15 Jul - 09:13:14 10° W 09:28:46 34° SW 09:40:03 10° SSE daylight
16 Jul - 01:13:21 10° SSW 01:25:22 30° SE 01:40:27 10° E visible
16 Jul - 03:22:37 10° SW 03:38:51 53° SSE 03:57:18 10° E visible
16 Jul - 05:35:38 10° WSW 05:54:19 61° S 06:11:24 10° ESE visible
16 Jul - 07:51:06 10° W 08:09:09 47° SSW 08:22:56 10° SE daylight
16 Jul - 10:09:53 10° W 10:21:14 21° SW 10:30:07 10° S daylight
16 Jul - 23:58:36 10° SSE 00:06:34 17° SE 00:16:13 10° E visible
17 Jul - 02:04:32 10° SW 02:18:26 43° SSE 02:36:02 10° E visible
17 Jul - 04:15:46 10° WSW 04:33:04 60° S 04:51:34 10° E visible
17 Jul - 06:29:51 10° W 06:48:37 56° SSW 07:04:41 10° ESE daylight
17 Jul - 08:46:25 10° W 09:02:21 34° SW 09:14:33 10° SSE daylight
18 Jul - 00:47:44 10° SSW 00:58:54 30° SE 01:13:41 10° E visible
18 Jul - 02:56:51 10° SW 03:12:07 54° SSE 03:30:51 10° E visible
18 Jul - 05:09:28 10° WSW 05:27:30 61° S 05:45:26 10° ESE visible
18 Jul - 07:24:29 10° W 07:42:30 46° SSW 07:57:17 10° SE daylight
18 Jul - 09:43:05 10° W 09:54:55 21° SW 10:04:30 10° S daylight
18 Jul - 23:33:00 10° SSE 23:40:19 17° SE 23:49:24 10° E visible
19 Jul - 01:38:57 10° SW 01:51:50 43° SSE 02:09:17 10° E visible
19 Jul - 03:49:54 10° WSW 04:06:16 60° S 04:25:14 10° E visible
19 Jul - 06:03:32 10° W 06:21:49 56° SSW 06:38:48 10° SE daylight
19 Jul - 08:19:42 10° W 08:35:48 34° SW 08:48:51 10° SSE daylight
20 Jul - 00:22:16 10° SSW 00:32:32 30° SE 00:46:46 10° E visible
20 Jul - 02:31:14 10° SW 02:45:26 54° SSE 03:04:11 10° E visible
20 Jul - 04:43:27 10° WSW 05:00:39 61° S 05:19:14 10° ESE visible
20 Jul - 06:57:59 10° W 07:15:44 46° SSW 07:31:24 10° SE daylight
20 Jul - 09:16:23 10° W 09:28:26 21° SW 09:38:37 10° S daylight
20 Jul - 23:07:35 10° SSE 23:14:11 17° SE 23:22:30 10° E visible
21 Jul - 01:13:31 10° SW 01:25:22 43° SSE 01:42:22 10° E visible
21 Jul - 03:24:12 10° WSW 03:39:30 60° S 03:58:42 10° ESE visible
21 Jul - 05:37:22 10° W 05:54:57 55° SSW 06:12:39 10° SE visible
21 Jul - 07:53:07 10° W 08:09:06 33° SW 08:22:55 10° SSE daylight
21 Jul - 23:56:56 10° SSW 00:06:17 30° SE 00:19:45 10° E visible
22 Jul - 02:05:46 10° SW 02:18:51 54° SSE 02:37:21 10° E visible
22 Jul - 04:17:36 10° W 04:33:49 60° S 04:52:48 10° ESE visible
22 Jul - 06:31:40 10° W 06:48:54 45° SSW 07:05:17 10° SE daylight
22 Jul - 08:49:50 10° W 09:01:51 20° SW 09:12:29 10° S daylight
22 Jul - 22:42:19 10° SSE 22:48:09 16° SE 22:55:32 10° E visible
23 Jul - 00:48:13 10° SW 00:59:02 43° SSE 01:15:20 10° E visible
23 Jul - 02:58:37 10° WSW 03:12:49 60° S 03:31:57 10° ESE visible
23 Jul - 05:11:21 10° W 05:28:04 54° SSW 05:46:18 10° SE visible
23 Jul - 07:26:42 10° W 07:42:18 32° SW 07:56:43 10° SSE daylight
23 Jul - 23:31:43 10° SSW 23:40:11 29° SE 23:52:40 10° E visible
